Regional Weather Roundup
Issued by NWS

Home | Current Version | Previous Version | Text Only | Print | Product List | Glossary Off
Versions: 1 2 3 4 5 6 7 8 9 10 11 12 13 14 15 16 17 18 19 20 21 22 23 24 25 26 27 28 29 30 31 32 33 34 35 36 37 38 39 40 41 42 43 44 45 46 47 48 49 50

952
ASUS43 KLMK 222310
RWRKY
KENTUCKY REGIONAL WEATHER ROUNDUP
NATIONAL WEATHER SERVICE LOUISVILLE KY
600 PM EST WED NOV 22 2017

NOTE "FAIR" INDICATES FEW OR NO CLOUDS BELOW 12,000 FEET
WITH NO SIGNIFICANT WEATHER AND/OR OBSTRUCTIONS TO VISIBILITY.

KYZ001>023-026-027-061>063-070>075-230000-
WESTERN AND SOUTH CENTRAL KENTUCKY

CITY           SKY/WX    TMP DP  RH WIND       PRES   REMARKS
PADUCAH        CLEAR     37  19  48 N6        30.27S WCI  32
HENDERSON      CLEAR     37  21  52 N3        30.28F
OWENSBORO      CLEAR     39  21  48 N5        30.28R
HOPKINSVILLE   CLEAR     38  23  55 N7        30.24R WCI  33
BOWLING GREEN  CLEAR     42  23  46 N3        30.24S
GLASGOW        CLEAR     38  23  55 CALM      30.22S
$$

KYZ024-025-028>034-038-045-046-053-230000-
NORTH CENTRAL KENTUCKY

CITY           SKY/WX    TMP DP  RH WIND       PRES   REMARKS
LOUISVILLE/SDF CLEAR     39  24  55 N7        30.26S WCI  34
LOUISVILLE/LOU CLEAR     39  24  55 N5        30.26F
FORT KNOX      CLEAR     38  22  53 N3        30.23S
$$

KYZ035>037-039>044-047>052-055>060-089>105-230000-
NORTHEAST KENTUCKY

CITY           SKY/WX    TMP DP  RH WIND       PRES   REMARKS
LEXINGTON      PTCLDY    35  24  64 N6        30.23F WCI  30
COVINGTON      PTCLDY    35  24  64 NE5       30.26S WCI  31
FRANKFORT      CLEAR     39  22  50 N5        30.24S
$$

KYZ054-064>069-076>088-106>120-230000-
SOUTHEAST KENTUCKY

CITY           SKY/WX    TMP DP  RH WIND       PRES   REMARKS
JACKSON        CLEAR     38  24  57 N5        30.19F WCI  34
LONDON         CLEAR     39  24  55 N7        30.20R WCI  34
SOMERSET       PTCLDY    37  25  60 N5        30.23R WCI  34
MIDDLESBORO    CLEAR     42  25  50 NW3       30.19R
MONTICELLO     NOT AVBL
$$





USA.gov is the U.S. government's official web portal to all federal, state and local government web resources and services.